Time,TemperatureF,DewpointF,PressureIn,WindDirection,WindDirectionDegrees,WindSpeedMPH,WindSpeedGustMPH,Humidity,HourlyPrecipIn,Conditions,Clouds,dailyrainin,SolarRadiationWatts/m^2,SoftwareType,DateUTC
2013-02-02 00:00:00,26.8,17.0,30.25,NNE,22,2.0,5.0,66,0.00,,,0.00,0,Wunderground v.1.15,2013-02-02 06:00:00,
2013-02-02 00:10:00,26.9,17.0,30.24,NNE,22,2.0,2.0,66,0.00,,,0.00,0,Wunderground v.1.15,2013-02-02 06:10:00,
2013-02-02 00:20:00,26.9,17.0,30.24,NNE,22,3.0,3.0,66,0.00,,,0.00,0,Wunderground v.1.15,2013-02-02 06:20:00,
2013-02-02 00:25:00,26.9,17.0,30.24,NNE,21,3.0,9.0,66,0.00,,,0.00,0,Wunderground v.1.15,2013-02-02 06:25:00,
2013-02-02 00:30:00,26.9,17.4,30.23,NNE,22,2.0,6.0,67,0.00,,,0.00,0,Wunderground v.1.15,2013-02-02 06:30:00,
2013-02-02 00:40:00,26.9,17.4,30.23,NNE,22,2.0,6.0,67,0.00,,,0.00,0,Wunderground v.1.15,2013-02-02 06:40:00,
2013-02-02 00:45:00,26.9,17.4,30.23,NNE,22,1.0,6.0,67,0.00,,,0.00,0,Wunderground v.1.15,2013-02-02 06:45:00,
2013-02-02 00:55:00,27.0,17.5,30.22,NNE,22,1.0,6.0,67,0.00,,,0.00,0,Wunderground v.1.15,2013-02-02 06:55:00,
2013-02-02 01:05:00,27.1,17.6,30.22,NNE,23,1.0,4.0,67,0.00,,,0.00,0,Wunderground v.1.15,2013-02-02 07:05:00,
2013-02-02 01:10:00,27.1,17.6,30.22,NNE,23,0.0,5.0,67,0.00,,,0.00,0,Wunderground v.1.15,2013-02-02 07:10:00,
2013-02-02 01:20:00,27.1,17.9,30.22,NNE,24,3.0,8.0,68,0.00,,,0.00,0,Wunderground v.1.15,2013-02-02 07:20:00,
2013-02-02 01:25:00,27.0,17.8,30.22,NNE,25,3.0,8.0,68,0.00,,,0.00,0,Wunderground v.1.15,2013-02-02 07:25:00,
2013-02-02 01:30:00,26.9,18.1,30.22,NNE,24,2.0,2.0,69,0.00,,,0.00,0,Wunderground v.1.15,2013-02-02 07:30:00,
2013-02-02 01:35:00,26.9,18.1,30.22,NNE,24,2.0,7.0,69,0.00,,,0.00,0,Wunderground v.1.15,2013-02-02 07:35:00,
2013-02-02 01:45:00,26.7,17.9,30.21,NNE,24,2.0,9.0,69,0.00,,,0.00,0,Wunderground v.1.15,2013-02-02 07:45:00,
2013-02-02 01:50:00,26.6,17.8,30.21,NNE,24,2.0,2.0,69,0.00,,,0.00,0,Wunderground v.1.15,2013-02-02 07:50:00,
2013-02-02 01:55:00,26.6,18.1,30.21,NNE,24,2.0,6.0,70,0.00,,,0.00,0,Wunderground v.1.15,2013-02-02 07:55:00,
2013-02-02 02:10:00,26.3,17.8,30.21,NNE,24,2.0,2.0,70,0.00,,,0.00,0,Wunderground v.1.15,2013-02-02 08:10:00,
2013-02-02 02:15:00,26.1,18.0,30.21,NNE,24,2.0,5.0,71,0.00,,,0.00,0,Wunderground v.1.15,2013-02-02 08:15:00,
2013-02-02 02:20:00,26.1,18.0,30.21,NNE,24,1.0,1.0,71,0.00,,,0.00,0,Wunderground v.1.15,2013-02-02 08:20:00,
2013-02-02 02:25:00,26.0,17.9,30.21,NNE,24,1.0,4.0,71,0.00,,,0.00,0,Wunderground v.1.15,2013-02-02 08:25:00,
2013-02-02 02:35:00,26.2,18.1,30.21,NNE,24,3.0,5.0,71,0.00,,,0.00,0,Wunderground v.1.15,2013-02-02 08:35:00,
2013-02-02 02:40:00,26.3,18.2,30.20,NNE,24,2.0,2.0,71,0.00,,,0.00,0,Wunderground v.1.15,2013-02-02 08:40:00,
2013-02-02 02:50:00,26.4,18.3,30.20,NNE,24,1.0,1.0,71,0.00,,,0.00,0,Wunderground v.1.15,2013-02-02 08:50:00,
2013-02-02 02:55:00,26.6,18.5,30.20,NNE,25,2.0,5.0,71,0.00,,,0.00,0,Wunderground v.1.15,2013-02-02 08:55:00,
2013-02-02 03:05:00,27.3,18.5,30.20,NNE,26,4.0,4.0,69,0.00,,,0.00,0,Wunderground v.1.15,2013-02-02 09:05:00,
2013-02-02 03:20:00,27.9,18.4,30.20,NNE,25,5.0,11.0,67,0.00,,,0.00,0,Wunderground v.1.15,2013-02-02 09:20:00,
2013-02-02 03:25:00,27.8,18.3,30.20,NNE,26,5.0,5.0,67,0.00,,,0.00,0,Wunderground v.1.15,2013-02-02 09:25:00,
2013-02-02 03:30:00,27.7,18.2,30.19,NNE,26,4.0,9.0,67,0.00,,,0.00,0,Wunderground v.1.15,2013-02-02 09:30:00,
2013-02-02 03:35:00,27.6,18.1,30.19,NNE,26,4.0,4.0,67,0.00,,,0.00,0,Wunderground v.1.15,2013-02-02 09:35:00,
2013-02-02 03:45:00,27.5,18.3,30.19,NNE,26,5.0,11.0,68,0.00,,,0.00,0,Wunderground v.1.15,2013-02-02 09:45:00,
2013-02-02 03:50:00,27.5,18.3,30.19,NNE,26,5.0,11.0,68,0.00,,,0.00,0,Wunderground v.1.15,2013-02-02 09:50:00,
2013-02-02 04:00:00,27.8,18.6,30.19,North,360,5.0,12.0,68,0.00,,,0.00,0,Wunderground v.1.15,2013-02-02 10:00:00,
2013-02-02 04:10:00,28.1,18.9,30.19,NNE,26,6.0,13.0,68,0.00,,,0.00,0,Wunderground v.1.15,2013-02-02 10:10:00,
2013-02-02 04:20:00,28.4,19.2,30.19,NNE,26,5.0,16.0,68,0.00,,,0.00,0,Wunderground v.1.15,2013-02-02 10:20:00,
2013-02-02 04:30:00,28.8,19.6,30.19,NNE,27,4.0,4.0,68,0.00,,,0.00,0,Wunderground v.1.15,2013-02-02 10:30:00,
2013-02-02 04:35:00,29.0,19.8,30.19,NNE,27,4.0,5.0,68,0.00,,,0.00,0,Wunderground v.1.15,2013-02-02 10:35:00,
2013-02-02 04:40:00,29.1,19.8,30.19,NNE,28,4.0,12.0,68,0.00,,,0.00,0,Wunderground v.1.15,2013-02-02 10:40:00,
2013-02-02 04:45:00,29.2,19.9,30.20,NNE,30,3.0,13.0,68,0.00,,,0.00,0,Wunderground v.1.15,2013-02-02 10:45:00,
2013-02-02 04:55:00,30.1,20.1,30.20,NNE,28,8.0,17.0,66,0.00,,,0.00,0,Wunderground v.1.15,2013-02-02 10:55:00,
2013-02-02 05:00:00,30.2,20.2,30.20,NNE,30,7.0,14.0,66,0.00,,,0.00,0,Wunderground v.1.15,2013-02-02 11:00:00,
2013-02-02 05:05:00,30.2,20.2,30.20,NNE,30,6.0,15.0,66,0.00,,,0.00,0,Wunderground v.1.15,2013-02-02 11:05:00,
2013-02-02 05:10:00,30.1,20.1,30.20,NNE,30,7.0,14.0,66,0.00,,,0.00,0,Wunderground v.1.15,2013-02-02 11:10:00,
2013-02-02 05:15:00,29.9,19.9,30.20,North,360,7.0,14.0,66,0.00,,,0.00,0,Wunderground v.1.15,2013-02-02 11:15:00,
2013-02-02 05:25:00,29.7,20.1,30.21,NNE,28,6.0,13.0,67,0.00,,,0.00,0,Wunderground v.1.15,2013-02-02 11:25:00,
2013-02-02 05:30:00,29.5,19.9,30.21,NNE,30,7.0,7.0,67,0.00,,,0.00,0,Wunderground v.1.15,2013-02-02 11:30:00,
2013-02-02 05:35:00,29.4,20.1,30.21,NNE,30,7.0,13.0,68,0.00,,,0.00,0,Wunderground v.1.15,2013-02-02 11:35:00,
2013-02-02 05:45:00,29.3,20.4,30.21,NNE,30,6.0,10.0,69,0.00,,,0.00,0,Wunderground v.1.15,2013-02-02 11:45:00,
2013-02-02 05:55:00,29.1,20.2,30.21,NNE,30,6.0,14.0,69,0.00,,,0.00,0,Wunderground v.1.15,2013-02-02 11:55:00,
2013-02-02 06:05:00,28.9,20.7,30.21,NNE,29,5.0,12.0,71,0.00,,,0.00,0,Wunderground v.1.15,2013-02-02 12:05:00,
2013-02-02 06:10:00,28.9,20.7,30.22,NNE,30,6.0,12.0,71,0.00,,,0.00,0,Wunderground v.1.15,2013-02-02 12:10:00,
2013-02-02 06:15:00,28.9,21.0,30.22,NNE,30,6.0,12.0,72,0.00,,,0.00,0,Wunderground v.1.15,2013-02-02 12:15:00,
2013-02-02 06:25:00,28.9,21.0,30.22,NNE,30,5.0,11.0,72,0.00,,,0.00,0,Wunderground v.1.15,2013-02-02 12:25:00,
2013-02-02 06:30:00,28.9,21.0,30.22,North,360,5.0,5.0,72,0.00,,,0.00,0,Wunderground v.1.15,2013-02-02 12:30:00,
2013-02-02 06:35:00,28.8,21.2,30.22,NNE,30,5.0,12.0,73,0.00,,,0.00,0,Wunderground v.1.15,2013-02-02 12:35:00,
2013-02-02 06:45:00,28.5,20.9,30.22,NNE,30,3.0,12.0,73,0.00,,,0.00,0,Wunderground v.1.15,2013-02-02 12:45:00,
2013-02-02 06:55:00,28.4,20.8,30.22,NNE,30,2.0,10.0,73,0.00,,,0.00,0,Wunderground v.1.15,2013-02-02 12:55:00,
2013-02-02 07:00:00,28.3,21.1,30.22,NNE,30,2.0,2.0,74,0.00,,,0.00,0,Wunderground v.1.15,2013-02-02 13:00:00,
2013-02-02 07:10:00,28.3,21.1,30.22,NNE,30,1.0,1.0,74,0.00,,,0.00,0,Wunderground v.1.15,2013-02-02 13:10:00,
2013-02-02 07:15:00,28.3,21.1,30.23,NNE,30,0.0,5.0,74,0.00,,,0.00,0,Wunderground v.1.15,2013-02-02 13:15:00,
2013-02-02 07:20:00,28.3,21.1,30.23,NNE,30,0.0,0.0,74,0.00,,,0.00,0,Wunderground v.1.15,2013-02-02 13:20:00,
2013-02-02 07:30:00,28.0,21.1,30.23,NNE,30,1.0,1.0,75,0.00,,,0.00,7,Wunderground v.1.15,2013-02-02 13:30:00,
2013-02-02 07:35:00,28.0,21.1,30.23,NNE,30,1.0,6.0,75,0.00,,,0.00,11,Wunderground v.1.15,2013-02-02 13:35:00,
2013-02-02 07:40:00,27.9,21.0,30.24,NNE,30,0.0,0.0,75,0.00,,,0.00,12,Wunderground v.1.15,2013-02-02 13:40:00,
2013-02-02 07:45:00,27.9,21.3,30.24,NNE,30,0.0,0.0,76,0.00,,,0.00,16,Wunderground v.1.15,2013-02-02 13:45:00,
2013-02-02 07:55:00,27.9,21.3,30.24,NNE,30,0.0,0.0,76,0.00,,,0.00,18,Wunderground v.1.15,2013-02-02 13:55:00,
2013-02-02 08:00:00,28.0,21.4,30.24,NNE,30,0.0,0.0,76,0.00,,,0.00,23,Wunderground v.1.15,2013-02-02 14:00:00,
2013-02-02 08:10:00,28.1,21.5,30.25,NNE,30,0.0,0.0,76,0.00,,,0.00,49,Wunderground v.1.15,2013-02-02 14:10:00,
2013-02-02 08:20:00,29.0,22.4,30.25,NNE,26,2.0,11.0,76,0.00,,,0.00,74,Wunderground v.1.15,2013-02-02 14:20:00,
2013-02-02 08:25:00,29.4,22.5,30.25,NNE,28,3.0,11.0,75,0.00,,,0.00,69,Wunderground v.1.15,2013-02-02 14:25:00,
2013-02-02 08:35:00,30.0,22.7,30.25,North,360,2.0,8.0,74,0.00,,,0.00,79,Wunderground v.1.15,2013-02-02 14:35:00,
2013-02-02 08:40:00,30.2,22.9,30.25,North,360,2.0,2.0,74,0.00,,,0.00,74,Wunderground v.1.15,2013-02-02 14:40:00,
2013-02-02 08:45:00,30.4,23.1,30.26,North,360,1.0,7.0,74,0.00,,,0.00,74,Wunderground v.1.15,2013-02-02 14:45:00,
2013-02-02 08:55:00,30.8,23.5,30.26,North,360,3.0,4.0,74,0.00,,,0.00,76,Wunderground v.1.15,2013-02-02 14:55:00,
2013-02-02 09:00:00,30.9,23.6,30.26,NNE,28,4.0,4.0,74,0.00,,,0.00,74,Wunderground v.1.15,2013-02-02 15:00:00,
2013-02-02 09:10:00,31.3,24.0,30.26,NNE,25,3.0,14.0,74,0.00,,,0.00,56,Wunderground v.1.15,2013-02-02 15:10:00,
2013-02-02 09:20:00,31.7,24.4,30.26,NNE,24,5.0,11.0,74,0.00,,,0.00,121,Wunderground v.1.15,2013-02-02 15:20:00,
2013-02-02 09:25:00,31.9,24.6,30.26,NNE,23,5.0,12.0,74,0.00,,,0.00,113,Wunderground v.1.15,2013-02-02 15:25:00,
2013-02-02 09:30:00,32.4,24.7,30.27,North,360,5.0,11.0,73,0.00,,,0.00,179,Wunderground v.1.15,2013-02-02 15:30:00,
2013-02-02 09:40:00,32.8,24.4,30.26,NNE,25,6.0,14.0,71,0.00,,,0.00,162,Wunderground v.1.15,2013-02-02 15:40:00,
2013-02-02 09:45:00,33.0,25.0,30.25,North,360,5.0,14.0,72,0.00,,,0.00,144,Wunderground v.1.15,2013-02-02 15:45:00,
2013-02-02 09:50:00,33.1,24.7,30.26,NNE,25,5.0,12.0,71,0.00,,,0.00,174,Wunderground v.1.15,2013-02-02 15:50:00,
2013-02-02 10:00:00,33.7,25.3,30.26,North,360,4.0,4.0,71,0.00,,,0.00,134,Wunderground v.1.15,2013-02-02 16:00:00,
2013-02-02 10:10:00,33.4,24.7,30.27,North,360,4.0,14.0,70,0.00,,,0.00,185,Wunderground v.1.15,2013-02-02 16:10:00,
2013-02-02 10:15:00,33.4,25.0,30.27,North,360,5.0,14.0,71,0.00,,,0.00,214,Wunderground v.1.15,2013-02-02 16:15:00,
2013-02-02 10:25:00,33.5,25.1,30.27,NNE,25,7.0,15.0,71,0.00,,,0.00,193,Wunderground v.1.15,2013-02-02 16:25:00,
2013-02-02 10:35:00,33.8,25.4,30.27,North,360,3.0,12.0,71,0.00,,,0.00,204,Wunderground v.1.15,2013-02-02 16:35:00,
2013-02-02 10:40:00,33.9,25.5,30.28,North,360,4.0,10.0,71,0.00,,,0.00,206,Wunderground v.1.15,2013-02-02 16:40:00,
2013-02-02 10:45:00,33.8,25.0,30.28,North,360,4.0,10.0,70,0.00,,,0.00,186,Wunderground v.1.15,2013-02-02 16:45:00,
2013-02-02 10:50:00,33.7,25.3,30.28,North,360,5.0,5.0,71,0.00,,,0.00,142,Wunderground v.1.15,2013-02-02 16:50:00,
2013-02-02 11:00:00,33.7,25.3,30.28,North,360,4.0,4.0,71,0.00,,,0.00,211,Wunderground v.1.15,2013-02-02 17:00:00,
2013-02-02 11:05:00,33.7,25.3,30.28,NNE,25,4.0,5.0,71,0.00,,,0.00,218,Wunderground v.1.15,2013-02-02 17:05:00,
2013-02-02 11:10:00,33.8,25.0,30.28,North,360,5.0,5.0,70,0.00,,,0.00,193,Wunderground v.1.15,2013-02-02 17:10:00,
2013-02-02 11:20:00,34.1,25.7,30.28,North,360,3.0,11.0,71,0.00,,,0.00,204,Wunderground v.1.15,2013-02-02 17:20:00,
2013-02-02 11:25:00,34.2,25.4,30.28,North,360,4.0,11.0,70,0.00,,,0.00,188,Wunderground v.1.15,2013-02-02 17:25:00,
2013-02-02 11:30:00,34.4,25.6,30.28,North,360,4.0,4.0,70,0.00,,,0.00,207,Wunderground v.1.15,2013-02-02 17:30:00,
2013-02-02 11:40:00,34.9,25.4,30.27,NNE,29,3.0,7.0,68,0.00,,,0.00,218,Wunderground v.1.15,2013-02-02 17:40:00,
2013-02-02 11:45:00,34.8,25.7,30.27,North,360,3.0,12.0,69,0.00,,,0.00,209,Wunderground v.1.15,2013-02-02 17:45:00,
2013-02-02 11:55:00,34.9,25.8,30.27,North,360,3.0,10.0,69,0.00,,,0.00,234,Wunderground v.1.15,2013-02-02 17:55:00,
2013-02-02 12:00:00,35.0,25.9,30.27,North,360,4.0,4.0,69,0.00,,,0.00,267,Wunderground v.1.15,2013-02-02 18:00:00,
2013-02-02 12:10:00,35.6,26.4,30.26,NNE,24,5.0,5.0,69,0.00,,,0.00,360,Wunderground v.1.15,2013-02-02 18:10:00,
2013-02-02 12:15:00,36.0,26.5,30.26,North,360,4.0,11.0,68,0.00,,,0.00,325,Wunderground v.1.15,2013-02-02 18:15:00,
2013-02-02 12:20:00,36.1,26.6,30.26,North,360,4.0,11.0,68,0.00,,,0.00,362,Wunderground v.1.15,2013-02-02 18:20:00,
2013-02-02 12:30:00,36.9,27.0,30.25,NNE,25,5.0,15.0,67,0.00,,,0.00,374,Wunderground v.1.15,2013-02-02 18:30:00,
2013-02-02 12:35:00,36.9,27.0,30.26,North,360,5.0,15.0,67,0.00,,,0.00,353,Wunderground v.1.15,2013-02-02 18:35:00,
2013-02-02 12:40:00,37.0,26.7,30.26,North,360,5.0,14.0,66,0.00,,,0.00,353,Wunderground v.1.15,2013-02-02 18:40:00,
2013-02-02 12:50:00,37.0,26.3,30.25,North,360,5.0,5.0,65,0.00,,,0.00,301,Wunderground v.1.15,2013-02-02 18:50:00,
2013-02-02 12:55:00,37.1,26.8,30.25,North,360,6.0,7.0,66,0.00,,,0.00,278,Wunderground v.1.15,2013-02-02 18:55:00,
2013-02-02 13:05:00,36.9,26.6,30.25,North,360,6.0,14.0,66,0.00,,,0.00,227,Wunderground v.1.15,2013-02-02 19:05:00,
2013-02-02 13:10:00,36.9,27.0,30.25,North,360,6.0,14.0,67,0.00,,,0.00,218,Wunderground v.1.15,2013-02-02 19:10:00,
2013-02-02 13:20:00,36.7,26.4,30.24,North,360,4.0,12.0,66,0.00,,,0.00,260,Wunderground v.1.15,2013-02-02 19:20:00,
2013-02-02 13:25:00,36.9,27.0,30.25,North,360,5.0,13.0,67,0.00,,,0.00,258,Wunderground v.1.15,2013-02-02 19:25:00,
2013-02-02 13:30:00,37.2,27.2,30.25,North,360,5.0,5.0,67,0.00,,,0.00,274,Wunderground v.1.15,2013-02-02 19:30:00,
2013-02-02 13:40:00,37.5,26.8,30.24,North,360,5.0,14.0,65,0.00,,,0.00,404,Wunderground v.1.15,2013-02-02 19:40:00,
2013-02-02 13:45:00,37.7,26.6,30.24,North,360,7.0,14.0,64,0.00,,,0.00,339,Wunderground v.1.15,2013-02-02 19:45:00,
2013-02-02 13:55:00,38.8,27.7,30.24,North,360,4.0,7.0,64,0.00,,,0.00,568,Wunderground v.1.15,2013-02-02 19:55:00,
2013-02-02 14:05:00,39.0,27.8,30.23,North,360,8.0,8.0,64,0.00,,,0.00,311,Wunderground v.1.15,2013-02-02 20:05:00,
2013-02-02 14:10:00,39.2,27.7,30.24,NNE,26,6.0,13.0,63,0.00,,,0.00,302,Wunderground v.1.15,2013-02-02 20:10:00,
2013-02-02 14:20:00,38.9,27.8,30.24,North,360,8.0,15.0,64,0.00,,,0.00,411,Wunderground v.1.15,2013-02-02 20:20:00,
2013-02-02 14:25:00,39.3,28.9,30.24,North,360,9.0,18.0,66,0.00,,,0.00,462,Wunderground v.1.15,2013-02-02 20:25:00,
2013-02-02 14:30:00,39.4,28.6,30.24,North,360,9.0,9.0,65,0.00,,,0.00,559,Wunderground v.1.15,2013-02-02 20:30:00,
2013-02-02 14:45:00,39.7,29.6,30.24,North,360,10.0,17.0,67,0.00,,,0.00,281,Wunderground v.1.15,2013-02-02 20:45:00,
2013-02-02 14:55:00,39.6,29.5,30.24,North,360,8.0,18.0,67,0.00,,,0.00,188,Wunderground v.1.15,2013-02-02 20:55:00,
2013-02-02 15:00:00,39.3,29.3,30.24,North,360,8.0,8.0,67,0.00,,,0.00,163,Wunderground v.1.15,2013-02-02 21:00:00,
2013-02-02 15:10:00,39.1,29.4,30.23,North,360,6.0,6.0,68,0.00,,,0.00,190,Wunderground v.1.15,2013-02-02 21:10:00,
2013-02-02 15:15:00,39.1,29.8,30.23,North,360,6.0,14.0,69,0.00,,,0.00,171,Wunderground v.1.15,2013-02-02 21:15:00,
2013-02-02 15:25:00,39.4,29.7,30.23,North,360,4.0,12.0,68,0.00,,,0.00,197,Wunderground v.1.15,2013-02-02 21:25:00,
2013-02-02 15:30:00,39.5,29.8,30.23,North,360,4.0,11.0,68,0.00,,,0.00,181,Wunderground v.1.15,2013-02-02 21:30:00,
2013-02-02 15:35:00,39.4,29.7,30.23,North,360,4.0,13.0,68,0.00,,,0.00,153,Wunderground v.1.15,2013-02-02 21:35:00,
2013-02-02 15:45:00,39.7,30.0,30.22,North,360,3.0,10.0,68,0.00,,,0.00,274,Wunderground v.1.15,2013-02-02 21:45:00,
2013-02-02 15:50:00,40.0,30.6,30.22,North,360,3.0,3.0,69,0.00,,,0.00,260,Wunderground v.1.15,2013-02-02 21:50:00,
2013-02-02 16:00:00,40.4,30.7,30.23,North,360,3.0,11.0,68,0.00,,,0.00,200,Wunderground v.1.15,2013-02-02 22:00:00,
2013-02-02 16:05:00,40.4,30.7,30.24,North,360,5.0,12.0,68,0.00,,,0.00,95,Wunderground v.1.15,2013-02-02 22:05:00,
2013-02-02 16:15:00,40.1,30.7,30.24,NNE,30,4.0,13.0,69,0.00,,,0.00,113,Wunderground v.1.15,2013-02-02 22:15:00,
2013-02-02 16:20:00,39.9,30.5,30.24,North,360,3.0,3.0,69,0.00,,,0.00,74,Wunderground v.1.15,2013-02-02 22:20:00,
2013-02-02 16:25:00,39.9,30.5,30.23,North,360,3.0,4.0,69,0.00,,,0.00,88,Wunderground v.1.15,2013-02-02 22:25:00,
2013-02-02 16:35:00,39.9,30.9,30.23,North,360,2.0,11.0,70,0.00,,,0.00,81,Wunderground v.1.15,2013-02-02 22:35:00,
2013-02-02 16:40:00,39.8,30.8,30.23,North,360,2.0,6.0,70,0.00,,,0.00,67,Wunderground v.1.15,2013-02-02 22:40:00,
2013-02-02 16:50:00,39.5,30.5,30.22,North,360,1.0,1.0,70,0.00,,,0.00,86,Wunderground v.1.15,2013-02-02 22:50:00,
2013-02-02 16:55:00,39.6,30.6,30.22,North,360,0.0,1.0,70,0.00,,,0.00,69,Wunderground v.1.15,2013-02-02 22:55:00,
2013-02-02 17:05:00,39.5,30.9,30.21,North,360,0.0,0.0,71,0.00,,,0.00,32,Wunderground v.1.15,2013-02-02 23:05:00,
2013-02-02 17:10:00,39.1,30.8,30.22,North,360,0.0,0.0,72,0.00,,,0.00,23,Wunderground v.1.15,2013-02-02 23:10:00,
2013-02-02 17:20:00,38.2,30.3,30.21,North,360,0.0,0.0,73,0.00,,,0.00,16,Wunderground v.1.15,2013-02-02 23:20:00,
2013-02-02 17:25:00,38.0,30.4,30.21,North,360,0.0,0.0,74,0.00,,,0.00,12,Wunderground v.1.15,2013-02-02 23:25:00,
2013-02-02 17:35:00,37.5,30.3,30.21,North,360,0.0,0.0,75,0.00,,,0.00,7,Wunderground v.1.15,2013-02-02 23:35:00,
2013-02-02 17:40:00,37.0,29.8,30.20,North,360,0.0,0.0,75,0.00,,,0.00,0,Wunderground v.1.15,2013-02-02 23:40:00,
2013-02-02 17:45:00,36.6,30.1,30.20,North,360,0.0,0.0,77,0.00,,,0.00,0,Wunderground v.1.15,2013-02-02 23:45:00,
2013-02-02 17:55:00,36.1,29.9,30.20,North,360,0.0,0.0,78,0.00,,,0.00,0,Wunderground v.1.15,2013-02-02 23:55:00,
2013-02-02 18:00:00,36.0,29.8,30.20,North,360,0.0,0.0,78,0.00,,,0.00,0,Wunderground v.1.15,2013-02-03 00:00:00,
2013-02-02 18:10:00,36.0,29.8,30.19,North,360,0.0,0.0,78,0.00,,,0.00,0,Wunderground v.1.15,2013-02-03 00:10:00,
2013-02-02 18:15:00,35.7,29.5,30.19,North,360,0.0,0.0,78,0.00,,,0.00,0,Wunderground v.1.15,2013-02-03 00:15:00,
2013-02-02 18:20:00,35.5,29.6,30.19,North,360,0.0,0.0,79,0.00,,,0.00,0,Wunderground v.1.15,2013-02-03 00:20:00,
2013-02-02 18:30:00,35.0,29.1,30.19,North,360,0.0,0.0,79,0.00,,,0.00,0,Wunderground v.1.15,2013-02-03 00:30:00,
2013-02-02 18:35:00,34.7,29.2,30.18,North,360,0.0,0.0,80,0.00,,,0.00,0,Wunderground v.1.15,2013-02-03 00:35:00,
2013-02-02 18:45:00,34.5,29.3,30.19,North,360,0.0,0.0,81,0.00,,,0.00,0,Wunderground v.1.15,2013-02-03 00:45:00,
2013-02-02 18:50:00,34.5,29.3,30.19,North,360,0.0,0.0,81,0.00,,,0.00,0,Wunderground v.1.15,2013-02-03 00:50:00,
2013-02-02 19:00:00,34.2,29.0,30.18,North,360,0.0,0.0,81,0.00,,,0.00,0,Wunderground v.1.15,2013-02-03 01:00:00,
2013-02-02 19:05:00,34.0,28.8,30.17,NNE,25,0.0,0.0,81,0.00,,,0.00,0,Wunderground v.1.15,2013-02-03 01:05:00,
2013-02-02 19:15:00,33.9,29.0,30.18,NNE,24,1.0,2.0,82,0.00,,,0.00,0,Wunderground v.1.15,2013-02-03 01:15:00,
2013-02-02 19:20:00,34.0,29.1,30.17,NNE,24,1.0,1.0,82,0.00,,,0.00,0,Wunderground v.1.15,2013-02-03 01:20:00,
2013-02-02 19:30:00,34.0,29.1,30.17,NNE,24,0.0,0.0,82,0.00,,,0.00,0,Wunderground v.1.15,2013-02-03 01:30:00,
2013-02-02 19:40:00,33.8,28.9,30.16,NNE,23,0.0,2.0,82,0.00,,,0.00,0,Wunderground v.1.15,2013-02-03 01:40:00,
2013-02-02 19:45:00,33.8,28.9,30.15,NNE,22,2.0,4.0,82,0.00,,,0.00,0,Wunderground v.1.15,2013-02-03 01:45:00,
2013-02-02 19:55:00,33.9,29.0,30.15,NNE,22,2.0,6.0,82,0.00,,,0.00,0,Wunderground v.1.15,2013-02-03 01:55:00,
2013-02-02 20:05:00,34.0,29.1,30.15,NNE,22,0.0,3.0,82,0.00,,,0.00,0,Wunderground v.1.15,2013-02-03 02:05:00,
2013-02-02 20:10:00,34.1,29.2,30.15,NNE,22,3.0,6.0,82,0.00,,,0.00,0,Wunderground v.1.15,2013-02-03 02:10:00,
2013-02-02 20:20:00,34.3,29.1,30.15,NNE,23,3.0,7.0,81,0.00,,,0.00,0,Wunderground v.1.15,2013-02-03 02:20:00,
2013-02-02 20:25:00,34.6,29.4,30.15,NNE,23,3.0,7.0,81,0.00,,,0.00,0,Wunderground v.1.15,2013-02-03 02:25:00,
2013-02-02 20:30:00,34.8,29.6,30.15,NNE,24,4.0,4.0,81,0.00,,,0.00,0,Wunderground v.1.15,2013-02-03 02:30:00,
2013-02-02 20:40:00,35.1,29.6,30.14,NNE,23,3.0,3.0,80,0.00,,,0.00,0,Wunderground v.1.15,2013-02-03 02:40:00,
2013-02-02 20:45:00,35.3,29.7,30.14,NNE,24,3.0,7.0,80,0.00,,,0.00,0,Wunderground v.1.15,2013-02-03 02:45:00,
2013-02-02 20:50:00,35.5,29.9,30.13,NNE,24,3.0,3.0,80,0.00,,,0.00,0,Wunderground v.1.15,2013-02-03 02:50:00,
2013-02-02 20:55:00,35.6,30.0,30.14,NNE,24,2.0,7.0,80,0.00,,,0.00,0,Wunderground v.1.15,2013-02-03 02:55:00,
2013-02-02 21:05:00,35.5,29.9,30.13,NNE,24,0.0,4.0,80,0.00,,,0.00,0,Wunderground v.1.15,2013-02-03 03:05:00,
2013-02-02 21:10:00,35.5,29.9,30.13,NNE,24,1.0,1.0,80,0.00,,,0.00,0,Wunderground v.1.15,2013-02-03 03:10:00,
2013-02-02 21:20:00,35.5,30.2,30.12,NNE,24,0.0,0.0,81,0.00,,,0.00,0,Wunderground v.1.15,2013-02-03 03:20:00,
2013-02-02 21:25:00,35.7,30.7,30.11,NNE,26,1.0,5.0,82,0.00,,,0.00,0,Wunderground v.1.15,2013-02-03 03:25:00,
2013-02-02 21:35:00,37.7,32.4,30.11,NNE,28,4.0,6.0,81,0.00,,,0.00,0,Wunderground v.1.15,2013-02-03 03:35:00,
2013-02-02 21:40:00,38.4,32.8,30.11,NNE,29,4.0,12.0,80,0.00,,,0.00,0,Wunderground v.1.15,2013-02-03 03:40:00,
2013-02-02 21:50:00,40.2,33.9,30.11,NNE,30,7.0,7.0,78,0.00,,,0.00,0,Wunderground v.1.15,2013-02-03 03:50:00,
2013-02-02 21:55:00,40.9,34.2,30.12,NNE,30,6.0,12.0,77,0.00,,,0.00,0,Wunderground v.1.15,2013-02-03 03:55:00,
2013-02-02 22:05:00,42.7,35.3,30.13,NNE,32,9.0,9.0,75,0.00,,,0.00,0,Wunderground v.1.15,2013-02-03 04:05:00,
2013-02-02 22:10:00,43.3,35.6,30.13,North,360,9.0,16.0,74,0.00,,,0.00,0,Wunderground v.1.15,2013-02-03 04:10:00,
2013-02-02 22:20:00,44.5,35.7,30.14,North,360,14.0,14.0,71,0.00,,,0.00,0,Wunderground v.1.15,2013-02-03 04:20:00,
2013-02-02 22:25:00,44.4,35.6,30.14,NNE,32,15.0,15.0,71,0.00,,,0.00,0,Wunderground v.1.15,2013-02-03 04:25:00,
2013-02-02 22:35:00,43.5,35.1,30.14,North,360,10.0,14.0,72,0.00,,,0.00,0,Wunderground v.1.15,2013-02-03 04:35:00,
2013-02-02 22:40:00,43.2,35.1,30.14,North,360,10.0,10.0,73,0.00,,,0.00,0,Wunderground v.1.15,2013-02-03 04:40:00,
2013-02-02 22:50:00,42.4,34.7,30.14,North,360,8.0,8.0,74,0.00,,,0.00,0,Wunderground v.1.15,2013-02-03 04:50:00,
2013-02-02 23:00:00,41.3,34.0,30.14,North,360,5.0,5.0,75,0.00,,,0.00,0,Wunderground v.1.15,2013-02-03 05:00:00,
2013-02-02 23:10:00,40.7,34.0,30.14,North,360,5.0,10.0,77,0.00,,,0.00,0,Wunderground v.1.15,2013-02-03 05:10:00,
2013-02-02 23:15:00,40.6,34.0,30.14,North,360,5.0,11.0,77,0.00,,,0.00,0,Wunderground v.1.15,2013-02-03 05:15:00,
2013-02-02 23:25:00,40.7,34.0,30.15,North,360,6.0,14.0,77,0.00,,,0.00,0,Wunderground v.1.15,2013-02-03 05:25:00,
2013-02-02 23:30:00,40.9,34.2,30.15,North,360,6.0,6.0,77,0.00,,,0.00,0,Wunderground v.1.15,2013-02-03 05:30:00,
2013-02-02 23:35:00,40.9,34.2,30.15,NNE,31,7.0,9.0,77,0.00,,,0.00,0,Wunderground v.1.15,2013-02-03 05:35:00,
2013-02-02 23:45:00,40.8,34.1,30.16,North,360,6.0,14.0,77,0.00,,,0.00,0,Wunderground v.1.15,2013-02-03 05:45:00,
2013-02-02 23:50:00,40.6,34.0,30.16,North,360,6.0,6.0,77,0.00,,,0.00,0,Wunderground v.1.15,2013-02-03 05:50:00,